Temp
14 13 13 13 13 13 13 13 13 13 12 12 12 11 11 11 11 11 11 11 11 11 11 11 11 11 11 11 11 11 12 12 12 11 11 12 11 11 11 12 12 12
14 13 13 13 13 13 13 13 12 12 12 12 12 12 12 12 12 12 11 11 11 11 11 11 11 11 11 11 11 11 11 11 11 11 11 11 11 11 12 12 12 12
13 13 13 13 13 13 13 13 13 12 12 12 12 12 12 12 12 12 12 12 12 12 11 11 11 11 10 11 11 11 11 11 11 11 11 12 12 12 12 12 12 12
14 13 13 13 13 13 13 13 13 13 12 12 12 12 12 13 13 12 12 12 12 12 12 12 11 10 10 10 11 11 12 12 12 12 12 12 12 12 12 12 12 12
14 13 13 13 13 13 13 13 13 13 13 13 13 13 12 12 12 12 12 12 12 12 12 12 11 11 10 10 11 11 12 12 12 12 12 12 12 12 11 11 11 11
14 13 13 13 13 13 13 12 12 13 13 13 13 13 12 12 12 12 12 12 12 12 12 12 11 11 10 11 11 11 12 12 12 12 12 12 12 12 11 11 11 11
13 13 13 12 12 13 12 12 12 13 13 13 13 12 12 12 11 11 11 11 11 11 11 11 11 11 11 11 11 11 12 12 12 12 12 12 11 11 11 11 11 11
13 13 12 12 12 12 12 12 12 12 13 13 12 12 12 11 11 11 11 11 11 11 11 11 11 11 11 11 11 11 11 11 11 11 11 11 11 11 11 11 12 12
12 12 12 12 12 12 12 12 12 12 13 13 12 12 12 11 11 11 11 11 11 11 11 11 11 11 10 10 11 11 11 11 11 11 11 11 11 11 11 12 12 13
12 12 12 12 12 12 11 11 12 12 13 12 12 12 11 11 11 11 11 11 11 11 11 11 11 11 11 11 11 11 11 11 11 12 12 12 11 12 12 12 12 13
12 13 13 12 12 12 11 11 11 11 12 12 12 12 11 11 11 11 11 11 11 11 11 11 11 11 11 11 11 11 11 11 11 12 12 12 11 11 12 12 12 12
12 12 12 12 12 11 11 11 11 11 11 12 12 12 11 11 11 11 11 11 11 11 11 11 11 11 11 11 11 11 11 12 12 12 12 11 11 11 11 11 11 11
12 12 12 12 11 11 11 11 11 11 11 11 11 11 12 11 11 11 11 11 11 11 11 11 11 12 11 11 11 11 11 11 12 12 12 11 11 11 11 11 11 11
11 11 11 11 11 11 11 11 11 11 11 11 11 11 11 11 12 11 11 11 12 12 12 11 11 11 11 11 11 11 11 12 12 12 12 12 12 12 11 11 11 10
11 11 11 11 11 11 11 11 11 11 11 11 11 11 11 11 11 11 11 11 11 12 12 12 11 11 11 11 11 12 12 12 12 12 12 12 12 12 11 11 11 10
11 11 11 11 11 11 11 11 11 11 11 11 11 11 11 11 11 11 11 11 11 11 12 12 12 11 11 11 11 11 12 12 12 13 12 12 12 11 11 10 10 10
11 11 11 11 11 11 11 11 11 11 11 11 11 11 11 11 11 11 11 11 11 11 11 12 11 11 11 11 11 11 11 11 12 12 12 11 11 11 10 10 10 10
11 11 11 11 11 11 11 11 11 11 11 11 11 11 11 11 11 11 11 11 11 11 11 11 11 11 11 11 11 11 11 11 11 11 11 11 10 10 10 10 10 10
11 11 11 11 11 11 11 11 11 11 11 11 11 11 11 11 11 11 11 11 11 11 11 11 11 11 11 11 11 11 11 11 11 11 11 11 11 10 10 9 9 9
11 11 11 11 11 11 11 11 11 11 11 11 11 11 11 11 11 11 11 11 11 11 11 10 10 10 11 11 11 10 10 10 10 10 10 10 10 10 9 9 9 9
11 11 11 11 11 11 11 11 10 10 10 10 10 10 11 11 11 11 11 11 11 11 10 10 10 10 10 11 10 10 10 10 10 10 10 10 9 9 9 9 9 9
10 10 10 10 10 10 11 11 10 10 10 10 10 10 10 10 10 10 10 10 10 10 10 10 10 10 10 10 10 10 10 10 10 9 9 9 9 9 9 9 9 8
9 9 9 10 10 10 10 10 10 10 10 10 10 10 10 10 10 10 10 10 10 10 10 10 10 10 10 10 10 10 10 9 9 9 9 9 9 9 8 8 8 8
9 9 9 9 9 9 9 10 10 10 10 10 10 10 10 10 10 10 10 10 10 10 10 10 10 10 10 10 10 10 9 9 9 9 9 8 8 8 8 8 8 8
9 8 8 8 8 9 9 9 9 9 9 9 10 10 10 10 10 10 10 10 10 9 10 10 10 10 10 10 10 10 9 9 9 9 8 7 7 8 8 8 8 8
7 7 8 8 8 8 8 8 9 9 9 9 9 9 9 9 10 10 10 10 10 9 9 9 10 10 10 10 10 9 9 9 9 8 8 7 7 7 7 7 7 7
Height
1521 1524 1526 1529 1531 1533 1534 1534 1534 1534 1535 1535 1535 1535 1534 1534 1533 1533 1532 1532 1531 1532 1532 1533 1535 1536 1537 1537 1538 1539 1540 1541 1542 1542 1543 1544 1545 1546 1548 1549 1550 1551
1519 1521 1523 1526 1528 1530 1532 1533 1533 1533 1534 1534 1534 1533 1533 1533 1533 1532 1531 1531 1531 1531 1531 1533 1534 1536 1537 1537 1538 1539 1540 1541 1542 1543 1544 1544 1545 1547 1548 1549 1550 1551
1518 1519 1521 1523 1525 1528 1529 1531 1532 1532 1532 1532 1532 1533 1533 1532 1532 1531 1530 1530 1530 1531 1531 1532 1534 1535 1536 1537 1538 1539 1540 1541 1542 1543 1544 1545 1546 1547 1548 1549 1550 1551
1516 1518 1520 1521 1523 1526 1528 1529 1530 1530 1531 1531 1531 1532 1532 1532 1531 1530 1530 1530 1530 1531 1531 1532 1533 1535 1536 1537 1538 1539 1539 1541 1542 1543 1544 1545 1546 1547 1548 1549 1550 1550
1516 1517 1518 1520 1522 1524 1526 1527 1529 1529 1529 1530 1530 1531 1531 1531 1531 1530 1530 1530 1531 1531 1532 1532 1533 1534 1536 1537 1537 1539 1540 1541 1541 1542 1543 1544 1545 1546 1548 1549 1550 1550
1515 1516 1517 1519 1520 1522 1524 1526 1527 1528 1529 1529 1530 1530 1531 1531 1531 1530 1531 1531 1531 1531 1532 1533 1533 1534 1536 1536 1538 1539 1540 1541 1541 1542 1543 1544 1545 1547 1548 1549 1550 1551
1515 1516 1517 1519 1520 1521 1523 1525 1527 1528 1529 1529 1530 1530 1530 1530 1531 1530 1531 1531 1531 1532 1532 1533 1534 1535 1536 1537 1538 1539 1540 1541 1542 1543 1544 1544 1546 1547 1548 1549 1550 1551
1515 1516 1517 1518 1519 1520 1522 1524 1526 1527 1529 1530 1530 1530 1530 1530 1531 1531 1531 1532 1532 1533 1533 1533 1534 1535 1537 1538 1539 1540 1540 1542 1543 1543 1544 1545 1546 1548 1549 1550 1550 1551
1514 1515 1516 1517 1518 1520 1522 1523 1525 1527 1529 1529 1530 1530 1530 1530 1531 1531 1531 1532 1533 1534 1534 1534 1535 1536 1537 1538 1539 1540 1541 1542 1543 1544 1545 1546 1547 1548 1549 1550 1550 1552
1514 1514 1515 1517 1518 1521 1522 1523 1525 1527 1528 1529 1529 1529 1530 1530 1531 1531 1532 1533 1533 1534 1535 1535 1536 1536 1538 1539 1540 1541 1542 1543 1543 1544 1545 1546 1547 1548 1549 1550 1551 1552
1513 1514 1515 1517 1519 1520 1522 1523 1525 1527 1528 1529 1529 1529 1529 1530 1530 1531 1532 1533 1534 1535 1535 1536 1536 1537 1539 1540 1542 1543 1543 1544 1544 1545 1546 1547 1548 1549 1549 1550 1551 1552
1513 1514 1515 1517 1518 1520 1522 1523 1525 1527 1527 1528 1528 1529 1529 1530 1530 1531 1533 1534 1535 1535 1536 1537 1537 1538 1540 1542 1543 1544 1545 1545 1546 1546 1547 1548 1548 1549 1549 1550 1551 1552
1514 1515 1515 1517 1518 1520 1522 1523 1524 1526 1526 1527 1527 1528 1528 1530 1530 1532 1533 1535 1536 1537 1537 1538 1538 1539 1541 1543 1544 1545 1546 1546 1547 1547 1548 1548 1549 1549 1550 1550 1551 1552
1514 1515 1516 1517 1519 1520 1521 1522 1523 1524 1525 1526 1527 1527 1528 1529 1531 1532 1534 1535 1537 1538 1539 1539 1540 1541 1543 1544 1545 1546 1547 1547 1547 1548 1548 1548 1549 1549 1550 1550 1551 1551
1514 1516 1516 1518 1518 1519 1520 1521 1522 1523 1523 1525 1527 1528 1529 1530 1531 1532 1533 1535 1536 1538 1539 1541 1542 1543 1544 1545 1546 1547 1547 1547 1548 1548 1548 1548 1549 1549 1549 1549 1549 1549
1515 1516 1517 1518 1518 1519 1520 1521 1521 1522 1523 1524 1526 1527 1528 1528 1529 1530 1532 1533 1535 1537 1540 1541 1542 1544 1545 1546 1547 1547 1547 1547 1547 1547 1547 1547 1547 1548 1548 1548 1547 1548
1516 1517 1517 1518 1518 1519 1520 1520 1521 1521 1522 1523 1524 1525 1526 1526 1527 1529 1530 1532 1533 1535 1537 1538 1539 1541 1543 1544 1545 1546 1546 1546 1546 1546 1546 1546 1546 1546 1547 1546 1546 1547
1518 1518 1518 1518 1518 1519 1519 1520 1520 1521 1521 1522 1523 1524 1525 1525 1526 1527 1528 1530 1532 1533 1534 1534 1535 1537 1539 1541 1543 1544 1545 1545 1545 1545 1545 1545 1545 1545 1545 1544 1544 1546
1519 1519 1519 1519 1518 1518 1519 1519 1520 1520 1520 1521 1521 1522 1523 1524 1524 1525 1527 1528 1530 1532 1532 1533 1535 1536 1537 1539 1540 1542 1543 1543 1542 1543 1542 1543 1543 1542 1541 1541 1543 1545
1521 1520 1520 1520 1519 1519 1519 1519 1519 1519 1520 1520 1520 1521 1522 1522 1523 1524 1526 1527 1529 1530 1531 1532 1534 1535 1536 1537 1538 1539 1539 1539 1540 1540 1540 1540 1539 1538 1537 1538 1541 1543
1521 1521 1521 1521 1520 1520 1519 1519 1519 1519 1519 1519 1519 1520 1521 1521 1522 1523 1524 1525 1527 1528 1528 1529 1531 1533 1534 1534 1535 1536 1536 1537 1537 1537 1537 1536 1535 1534 1536 1537 1539 1540
1520 1520 1521 1521 1521 1521 1520 1520 1520 1520 1519 1519 1519 1519 1520 1520 1521 1521 1522 1523 1524 1525 1525 1525 1527 1530 1530 1531 1531 1532 1533 1533 1533 1533 1533 1533 1531 1532 1535 1535 1535 1536
1518 1519 1520 1520 1521 1521 1521 1521 1520 1519 1519 1519 1518 1518 1518 1518 1519 1519 1519 1520 1521 1522 1522 1522 1523 1525 1527 1527 1527 1528 1529 1529 1529 1529 1529 1529 1529 1531 1532 1532 1532 1532
1518 1519 1520 1521 1521 1521 1520 1519 1519 1518 1518 1517 1517 1517 1517 1517 1517 1517 1517 1517 1517 1518 1519 1519 1520 1521 1523 1523 1524 1524 1524 1525 1525 1526 1525 1525 1526 1528 1528 1528 1529 1530
1520 1520 1521 1522 1521 1520 1519 1518 1517 1516 1516 1515 1515 1515 1515 1516 1516 1516 1516 1515 1515 1515 1516 1516 1517 1518 1519 1520 1520 1520 1521 1521 1522 1522 1522 1522 1523 1525 1525 1525 1526 1527
1521 1521 1521 1521 1520 1519 1518 1517 1516 1515 1514 1514 1513 1513 1513 1513 1513 1514 1514 1514 1513 1512 1513 1513 1514 1515 1516 1516 1516 1517 1518 1518 1518 1519 1518 1519 1520 1521 1521 1521 1523 1524
Wind_Speed
17 15 12 10 11 10 9 7 6 5 6 6 7 8 8 6 5 7 9 9 8 8 6 6 9 9 10 10 9 8 9 9 10 10 11 13 15 16 17 17 16 15
18 16 14 13 13 12 10 8 6 6 7 7 9 10 8 5 4 6 8 8 6 6 7 8 11 10 9 9 8 10 12 13 13 13 12 13 15 17 19 18 15 15
20 18 17 16 15 12 10 9 7 7 8 8 10 10 6 4 4 5 6 6 4 5 6 8 11 11 10 8 8 11 13 13 13 13 12 13 14 16 18 17 15 15
21 19 18 17 15 12 8 7 6 6 8 9 9 7 4 4 4 5 5 4 5 5 6 8 9 10 10 8 8 10 11 10 11 11 12 13 14 17 18 15 15 15
19 18 19 18 15 11 7 6 5 5 7 7 6 4 4 4 4 4 4 3 4 4 4 5 7 9 10 8 8 9 9 10 10 9 10 12 13 16 17 15 14 14
18 18 19 17 13 10 7 7 5 4 6 6 4 5 5 5 4 3 3 2 2 2 3 4 6 8 8 8 8 8 8 9 9 8 10 12 13 15 16 15 16 16
17 17 17 14 12 9 8 8 6 4 6 6 5 6 5 5 5 3 3 2 1 2 2 3 5 6 7 8 9 9 8 9 10 10 12 14 15 16 14 14 17 19
16 15 14 12 11 9 9 9 7 6 7 7 7 7 6 7 6 5 5 4 4 4 3 4 4 6 8 8 8 10 11 12 11 11 13 15 15 14 14 14 16 17
16 15 13 12 11 10 10 10 8 8 9 9 8 7 8 8 6 6 6 6 6 5 4 5 5 6 8 8 9 12 14 13 11 12 14 15 14 13 14 14 14 13
14 14 14 13 12 11 12 11 10 10 11 10 9 8 9 9 7 6 7 7 7 6 5 6 6 6 6 7 9 13 14 12 12 13 15 15 12 12 13 12 11 11
13 14 13 13 13 13 14 12 11 11 11 11 10 9 9 9 8 8 8 8 8 7 7 6 6 6 6 6 8 12 13 12 12 13 14 13 11 9 10 9 8 7
11 12 12 12 13 13 13 13 12 12 11 11 11 11 11 10 9 8 9 9 8 8 8 7 6 6 7 7 8 10 11 11 11 13 14 13 11 9 9 8 7 6
9 10 11 12 12 11 11 12 13 13 12 11 11 11 11 11 10 9 9 9 8 8 9 8 7 7 8 9 9 10 10 11 11 13 14 13 12 11 9 9 7 6
9 10 11 11 11 11 10 11 12 13 14 13 11 11 10 10 10 10 10 10 9 8 9 9 8 9 10 10 10 11 11 12 11 12 12 12 12 11 10 10 9 9
7 8 9 10 10 11 11 11 11 11 13 14 12 10 9 9 9 9 10 10 10 9 9 10 10 10 10 11 11 12 13 13 13 12 12 12 13 12 11 10 10 12
4 4 6 6 7 8 9 9 9 10 11 13 13 11 11 12 12 11 11 11 11 10 9 10 11 11 12 13 13 14 15 16 15 15 15 14 15 13 13 13 14 15
4 4 4 3 3 4 5 6 7 8 9 11 14 14 14 15 14 13 13 14 13 12 12 14 16 15 15 15 16 17 17 18 18 18 17 16 16 16 16 18 18 17
4 4 3 3 3 3 3 4 5 7 8 11 13 14 15 16 16 15 15 17 18 18 19 21 22 22 21 19 19 19 20 20 20 20 19 18 18 19 19 21 21 18
5 5 3 2 2 1 2 3 4 6 7 9 11 11 13 15 17 18 19 20 20 21 23 23 21 22 24 23 21 22 24 24 24 23 22 22 22 23 24 24 22 19
6 5 4 4 4 4 3 3 4 5 6 9 10 10 12 14 16 19 21 23 23 23 25 25 23 22 23 23 23 25 27 27 27 26 25 25 25 25 25 24 22 20
8 6 5 4 4 4 4 5 6 6 6 8 9 9 11 13 15 17 19 21 23 24 26 27 26 24 24 24 24 26 28 28 28 28 28 28 28 25 22 21 20 17
10 8 8 7 4 4 4 4 6 7 8 8 9 9 10 12 14 15 17 18 19 21 24 26 25 24 25 27 26 27 29 30 31 31 30 31 31 27 23 22 21 17
9 8 9 9 6 5 6 6 7 8 8 8 10 10 10 12 13 14 15 16 17 19 20 22 23 23 24 27 29 30 31 32 32 32 31 32 32 29 25 24 24 20
10 9 9 10 8 8 8 8 9 9 8 8 9 11 12 12 14 15 16 16 17 17 18 21 22 22 22 24 27 30 32 33 33 32 31 31 30 28 25 24 23 21
13 12 11 12 12 11 11 10 10 11 11 11 11 12 13 14 15 16 16 18 19 20 19 20 21 21 20 23 25 27 29 31 32 31 30 28 26 25 24 23 22 20
13 12 12 14 14 15 16 16 15 15 15 14 14 14 15 16 17 17 16 17 20 22 21 21 21 21 20 22 25 26 25 27 29 29 28 26 24 22 21 20 20 20
Wind_Direction
176 174 177 180 178 174 180 189 183 169 172 191 191 197 223 221 181 166 153 149 150 139 135 132 127 129 129 128 129 121 115 114 111 107 113 120 122 122 117 112 109 111
169 170 172 171 177 180 181 187 185 176 181 191 203 218 241 236 195 174 161 158 158 141 128 120 122 129 134 143 148 129 114 111 108 108 115 122 126 128 123 118 121 128
169 170 168 170 183 185 179 183 184 183 183 193 219 237 247 220 186 167 167 166 144 127 128 131 136 142 143 143 147 139 132 128 126 125 124 122 124 125 120 118 124 130
174 171 167 174 187 185 174 178 183 188 193 207 234 246 227 199 177 157 160 148 130 130 129 132 139 144 143 144 152 152 146 140 137 139 135 129 127 125 121 122 127 130
175 173 171 178 186 182 172 176 186 191 197 216 242 237 207 184 164 163 160 145 145 142 132 135 140 141 143 152 159 151 141 139 141 144 139 132 134 135 131 131 133 129
178 179 178 178 177 172 166 174 193 201 198 216 224 210 200 171 162 175 166 170 186 154 145 148 138 137 144 146 140 136 141 143 137 131 130 127 128 129 125 123 123 117
181 183 179 174 169 164 161 174 201 212 203 209 197 191 184 158 159 165 159 164 126 116 139 151 150 150 144 134 132 141 143 133 123 125 129 125 119 118 120 126 127 121
176 179 176 169 168 167 165 180 205 213 205 199 185 182 167 153 165 168 157 148 131 138 143 133 148 150 138 140 151 151 135 123 126 136 135 128 126 130 132 135 137 134
170 174 173 167 171 173 169 183 203 207 205 196 184 178 156 155 183 179 161 158 152 160 154 134 141 146 148 165 172 153 136 134 150 155 145 140 142 146 143 142 147 148
170 173 172 169 171 172 172 183 198 204 204 194 187 181 158 163 195 183 165 172 170 169 165 154 158 162 166 180 176 159 149 154 167 166 156 150 151 154 155 157 160 157
169 172 173 171 170 172 175 182 192 201 205 198 193 187 167 174 197 183 174 187 185 179 177 174 178 176 168 176 178 170 167 172 174 170 163 154 153 165 174 176 174 173
162 167 169 171 174 177 178 180 185 196 205 202 200 194 180 184 194 184 186 198 192 186 190 196 201 187 170 178 189 184 185 188 184 179 172 164 166 177 184 185 180 185
156 165 169 174 180 182 182 183 187 194 199 198 202 204 196 195 195 188 194 205 200 197 203 209 215 204 190 194 199 195 196 197 196 192 186 184 190 190 194 198 182 176
157 165 170 175 181 184 188 195 196 197 195 191 198 210 208 207 206 198 199 205 204 209 215 216 217 213 210 216 217 214 214 210 210 210 203 206 214 209 214 220 194 175
153 160 167 175 183 188 195 202 203 200 193 187 194 208 210 211 214 210 212 212 207 213 221 223 224 219 218 226 227 229 235 231 228 231 227 226 230 220 217 224 207 195
121 139 156 171 185 193 198 202 201 199 192 186 189 199 210 217 215 212 219 221 214 215 222 226 228 224 223 228 228 229 238 242 240 240 237 234 238 230 213 209 208 209
91 113 136 152 172 189 197 201 203 204 201 194 193 199 211 218 215 211 216 222 218 215 217 220 218 214 217 227 229 227 232 238 240 242 240 234 233 229 212 207 212 216
66 84 111 126 126 154 183 202 213 212 210 208 208 213 220 224 226 225 222 223 222 217 218 222 219 211 211 220 228 231 234 238 241 243 241 234 229 226 221 219 220 219
46 54 43 37 56 121 188 208 235 236 232 231 230 234 239 243 247 245 237 231 231 228 226 229 230 221 217 220 225 230 236 242 246 247 246 244 239 232 228 225 221 220
51 54 31 20 11 346 325 285 268 257 252 254 253 250 249 250 251 249 244 239 239 239 235 235 237 233 229 230 231 231 235 241 246 247 248 249 244 234 231 231 229 232
36 35 26 24 14 351 332 311 298 286 271 264 259 254 250 248 247 248 249 248 246 246 246 246 246 241 240 244 242 236 236 239 243 245 245 246 243 238 239 245 246 240
27 23 10 359 351 334 314 302 298 292 286 278 267 260 254 251 250 250 251 253 252 252 253 255 254 248 248 251 249 243 241 242 244 245 245 246 247 247 250 254 255 249
16 15 360 346 334 324 311 293 277 271 278 286 285 282 272 262 262 263 262 261 257 254 255 258 258 254 253 255 252 248 247 247 247 247 247 245 248 252 253 249 246 245
336 336 330 320 313 309 299 286 273 263 262 269 277 282 277 270 268 269 270 270 268 263 261 260 261 259 255 251 249 248 248 249 249 250 249 246 247 251 251 245 240 241
307 306 302 296 290 283 277 274 272 267 264 262 264 270 273 274 273 270 269 270 269 268 268 266 266 265 258 251 249 248 246 246 248 249 248 246 245 247 245 241 239 238
289 286 279 274 271 270 270 269 269 270 271 269 266 266 267 268 267 265 264 267 267 266 266 265 264 265 261 254 252 250 245 241 242 244 243 240 239 238 237 233 230 227